Dewpoint
2 3 4 4 4 3 3 2 2 2 1 1 4 11 12 13 13 13 12 11 11 11 11 9 3 -2 -2 -1 -1 -3 -8 -12 -12 -13 -18 -21 -17 -23 -20 -16 -19 -22 -21
-3 0 2 3 4 3 3 2 2 2 1 2 3 10 12 12 13 13 12 12 11 11 7 2 -2 -2 -1 -1 -2 -8 -12 -12 -14 -20 -23 -24 -23 -18 -18 -21 -23 -24 -25
-6 -7 -2 1 3 3 3 2 2 1 1 2 5 11 13 13 12 12 11 11 11 7 1 -2 -2 -1 -1 -1 -5 -11 -13 -15 -21 -24 -22 -20 -18 -22 -23 -24 -25 -25 -26
-5 -10 -12 -3 1 3 2 1 1 1 3 5 8 11 12 12 11 11 10 10 6 1 -1 -2 -1 -1 -1 -3 -9 -13 -16 -21 -23 -22 -21 -22 -24 -22 -17 -25 -23 -24 -25
-6 -6 -11 -12 -2 3 2 1 1 2 5 8 10 12 12 12 11 10 9 6 3 -2 -2 -1 -1 -1 -2 -7 -12 -16 -22 -23 -21 -21 -24 -25 -25 -23 -19 -16 -21 -23 -23
-6 -4 -3 -6 -8 2 2 2 1 2 5 9 11 12 12 12 10 9 6 1 -1 -2 -1 -1 -1 -2 -6 -12 -16 -21 -22 -20 -21 -24 -25 -24 -23 -22 -19 -13 -13 -13 -17
-8 -7 -3 -0 -1 2 2 2 2 3 5 9 11 11 12 11 10 8 5 0 -2 -1 -1 -1 -1 -4 -11 -16 -21 -21 -20 -21 -24 -25 -24 -24 -23 -22 -20 -17 -13 -12 -13
-6 -2 -3 1 1 2 2 3 3 5 6 9 10 11 10 10 8 4 -1 -2 -1 -1 -1 -1 -3 -9 -15 -20 -21 -20 -21 -24 -24 -24 -25 -25 -23 -21 -19 -16 -13 -12 -12
-6 -4 -5 2 3 3 3 3 4 6 7 9 10 10 8 7 4 -1 -2 -1 -1 -1 -1 -3 -8 -14 -19 -20 -19 -21 -23 -23 -24 -25 -25 -23 -21 -20 -18 -16 -13 -10 -10
-6 -6 -6 2 4 4 5 6 7 7 8 9 8 8 7 2 -2 -2 -1 -1 -1 -1 -3 -7 -13 -18 -20 -19 -20 -23 -23 -23 -24 -24 -23 -22 -21 -20 -17 -15 -13 -12 -10
-5 -5 -3 3 4 6 7 8 8 9 9 8 7 5 0 -2 -2 -1 -1 -1 -1 -3 -7 -11 -17 -19 -18 -20 -22 -22 -22 -23 -23 -23 -22 -22 -20 -19 -18 -18 -17 -15 -11
-4 -1 2 5 6 7 9 9 9 9 8 6 4 -0 -2 -2 -2 -1 -1 -1 -3 -6 -10 -16 -18 -18 -20 -21 -21 -21 -21 -22 -23 -23 -23 -22 -20 -20 -19 -17 -15 -11 -9
3 4 5 6 7 8 9 8 8 8 5 2 -1 -2 -2 -2 -2 -1 -1 -3 -5 -9 -14 -17 -18 -19 -20 -20 -19 -20 -21 -22 -23 -22 -20 -20 -19 -17 -15 -12 -9 -9 -9
4 4 4 6 7 8 7 7 6 4 1 -2 -2 -2 -2 -2 -1 -1 -3 -5 -8 -13 -17 -17 -18 -18 -18 -17 -18 -20 -22 -23 -23 -22 -20 -18 -16 -14 -11 -9 -8 -8 -9
2 2 3 4 6 6 6 4 3 -1 -2 -2 -2 -2 -2 -2 -2 -3 -5 -8 -12 -16 -17 -16 -16 -15 -15 -16 -18 -22 -24 -23 -23 -21 -19 -16 -14 -11 -9 -9 -9 -9 -9
2 1 3 5 5 5 3 2 -0 -2 -3 -3 -2 -2 -2 -2 -4 -5 -7 -11 -15 -16 -15 -14 -14 -14 -15 -17 -21 -25 -24 -23 -20 -19 -16 -13 -12 -12 -9 -9 -9 -8 -8
1 2 3 4 4 4 3 0 -1 -3 -3 -3 -2 -2 -2 -3 -5 -7 -11 -15 -15 -14 -13 -13 -13 -14 -16 -19 -24 -26 -25 -23 -20 -17 -13 -11 -11 -11 -11 -11 -9 -8 -9
2 3 3 3 3 2 0 -1 -3 -3 -3 -3 -2 -3 -3 -4 -7 -11 -15 -15 -13 -12 -12 -13 -13 -14 -19 -23 -26 -27 -25 -22 -18 -14 -11 -10 -11 -10 -9 -9 -8 -11 -10
3 3 3 3 2 1 -1 -2 -4 -4 -3 -3 -3 -4 -5 -7 -11 -15 -15 -13 -12 -12 -13 -13 -14 -17 -22 -25 -26 -26 -22 -16 -13 -12 -10 -10 -9 -9 -9 -9 -9 -10 -10
3 3 2 1 0 -1 -2 -3 -4 -4 -4 -4 -4 -5 -8 -12 -14 -15 -13 -13 -12 -13 -13 -13 -16 -22 -25 -26 -26 -24 -13 -9 -10 -9 -9 -9 -10 -10 -9 -9 -10 -10 -12
3 2 2 1 -1 -2 -3 -3 -4 -4 -4 -4 -5 -7 -10 -13 -15 -14 -13 -13 -13 -13 -12 -14 -20 -25 -26 -26 -26 -23 -9 -9 -9 -10 -10 -10 -10 -9 -10 -10 -10 -11 -10
3 2 1 -0 -1 -2 -2 -3 -3 -4 -5 -5 -7 -9 -12 -15 -14 -14 -13 -13 -14 -12 -13 -18 -23 -26 -27 -26 -24 -19 -9 -9 -10 -9 -10 -10 -9 -10 -11 -13 -12 -10 -11
3 2 1 0 -1 -2 -2 -2 -3 -4 -5 -6 -8 -9 -13 -15 -15 -15 -15 -15 -13 -13 -18 -24 -26 -27 -27 -25 -22 -15 -10 -10 -10 -10 -10 -10 -13 -15 -16 -14 -12 -12 -11
3 2 2 0 -1 -2 -2 -2 -3 -5 -5 -7 -9 -15 -16 -16 -17 -17 -16 -14 -13 -17 -23 -25 -26 -25 -24 -22 -16 -11 -11 -10 -10 -11 -11 -15 -15 -15 -15 -13 -12 -12 -11
2 2 2 1 -0 -2 -3 -3 -4 -5 -7 -10 -15 -18 -17 -18 -18 -17 -15 -12 -16 -22 -25 -25 -24 -22 -21 -17 -10 -10 -10 -10 -11 -10 -15 -15 -15 -15 -13 -12 -12 -11 -11
2 2 1 -0 -2 -4 -4 -5 -6 -7 -8 -15 -19 -18 -19 -19 -18 -16 -12 -15 -22 -25 -25 -25 -24 -23 -20 -16 -10 -10 -10 -10 -11 -13 -15 -15 -14 -15 -12 -11 -11 -11 -10
Wind_Speed
32 27 27 28 28 25 24 26 23 25 23 23 26 34 35 32 28 24 22 23 21 16 13 9 7 6 7 9 13 15 16 16 17 16 14 9 3 13 11 7 15 21 20
40 36 32 27 29 27 25 27 25 26 24 24 26 35 37 34 30 27 26 25 22 15 12 9 8 7 8 11 13 14 14 16 17 18 15 7 7 4 7 23 13 21 14
38 41 40 34 26 25 25 25 26 26 25 23 26 33 35 32 30 29 29 25 19 15 12 11 8 7 9 11 13 14 13 14 16 16 12 7 4 23 7 20 15 21 25
40 41 40 40 34 25 23 23 24 24 23 22 25 31 38 35 34 32 28 23 18 15 13 9 6 7 9 12 13 13 14 14 14 15 15 12 13 9 13 17 30 28 37
31 36 39 40 36 29 25 22 24 23 22 22 25 33 37 35 34 31 26 21 18 15 11 7 5 7 10 11 12 13 14 15 16 16 16 16 16 15 15 23 31 38 36
29 29 31 36 37 33 30 26 25 24 23 24 27 32 35 32 33 31 26 23 19 14 10 5 5 8 9 11 12 13 15 16 17 18 18 18 16 18 19 20 28 31 30
28 32 34 32 34 36 35 30 27 26 25 26 27 30 33 32 31 29 25 21 18 13 7 3 5 8 10 11 12 13 16 16 17 18 18 18 20 22 24 27 29 30 38
28 26 32 31 33 38 37 32 30 27 27 27 28 31 32 31 28 24 22 19 14 9 4 4 6 8 10 11 13 15 16 17 18 18 19 20 20 22 23 26 28 39 26
31 32 21 27 34 41 39 34 32 29 28 28 29 30 30 29 26 25 21 16 10 5 2 5 7 8 10 12 14 15 16 17 18 19 20 21 22 23 24 26 26 25 36
34 33 31 27 33 41 41 37 32 30 31 30 30 30 29 28 26 23 18 12 7 3 3 5 7 9 11 13 14 15 17 17 19 20 21 23 24 25 26 26 27 28 28
35 31 29 29 36 43 41 39 35 34 35 32 32 32 32 28 24 19 14 9 5 2 3 6 8 10 12 14 15 16 18 19 20 21 23 24 25 27 27 28 28 28 27
30 30 33 35 39 42 40 39 38 37 35 35 35 34 31 27 22 16 11 7 3 2 4 7 9 11 13 14 16 17 19 20 22 23 25 26 27 27 27 27 27 27 27
25 28 32 37 41 42 42 42 40 38 37 37 36 33 28 23 18 13 9 5 2 3 5 8 10 12 13 16 18 19 20 22 24 25 26 27 27 29 28 26 26 26 25
26 30 34 38 42 43 44 42 40 38 38 37 33 30 25 20 15 11 7 3 1 4 7 9 11 13 15 18 19 21 22 23 24 25 26 26 27 27 25 25 25 26 32
22 29 37 42 43 44 43 41 40 39 37 34 30 26 22 17 13 9 5 2 2 5 7 10 12 15 17 19 21 23 24 25 26 26 26 26 26 24 23 23 26 29 31
20 28 38 42 43 43 42 41 40 37 34 31 27 23 19 15 11 7 3 1 3 6 9 11 14 17 18 20 22 24 24 25 26 27 27 26 25 29 24 27 24 25 31
24 34 40 41 42 42 41 40 38 35 31 27 24 20 17 13 9 5 2 2 4 7 10 13 16 19 20 22 23 23 24 25 26 26 27 27 29 29 31 30 29 29 29
31 36 38 39 39 40 38 37 35 32 28 24 21 18 14 10 8 4 1 3 6 9 12 16 18 20 22 23 24 25 25 26 26 26 26 30 33 29 29 31 32 37 33
31 34 35 36 37 37 37 35 33 29 25 22 19 16 12 9 6 2 1 4 8 11 14 18 20 21 22 24 25 26 26 26 27 27 29 31 27 29 27 31 36 33 32
28 31 33 35 36 37 35 33 31 27 23 20 17 14 11 7 3 1 3 6 9 13 16 18 20 21 23 24 25 24 23 23 25 26 28 26 29 26 28 32 32 32 31
27 30 32 34 35 35 33 29 27 24 21 18 16 12 9 4 2 2 5 8 12 15 18 19 20 21 23 25 25 24 20 23 26 29 28 31 27 28 30 28 28 26 30
28 30 33 34 33 31 29 27 25 23 19 16 13 10 6 3 2 3 7 11 14 17 19 20 21 22 24 26 25 23 20 21 26 27 31 30 30 30 29 26 24 24 25
30 30 32 34 32 30 27 26 24 21 18 15 11 7 5 3 2 6 9 13 16 18 20 22 24 26 27 26 25 24 24 24 24 28 28 30 32 30 27 24 22 24 26
29 30 32 34 33 30 26 21 22 19 15 13 9 8 5 2 4 8 12 15 17 19 21 24 26 28 28 27 27 28 28 27 29 30 32 30 28 25 24 23 23 26 27
28 30 33 34 32 28 25 20 18 16 14 11 9 6 3 3 6 10 13 16 18 20 22 23 25 27 27 26 23 25 25 27 28 28 29 30 28 27 26 25 26 28 28
29 30 32 31 30 27 24 20 17 13 10 10 8 4 2 5 9 12 14 15 17 18 20 21 23 24 24 24 23 22 24 26 25 26 27 27 27 27 27 29 31 30 31
Wind_Direction
265 256 249 242 248 250 253 252 255 241 233 227 220 213 212 213 215 211 209 206 208 210 213 221 220 235 265 294 309 319 321 325 331 337 345 329 313 298 271 274 302 298 295
263 258 254 248 245 244 248 250 248 237 232 230 226 215 209 212 211 198 193 200 201 204 209 207 220 244 284 308 321 329 332 337 345 352 351 340 325 239 300 292 293 300 299
250 251 253 248 243 237 238 244 235 231 232 230 223 212 207 204 193 187 190 192 195 191 197 203 225 265 300 319 328 334 340 345 346 349 359 340 304 309 304 300 297 303 309
246 248 244 242 239 232 229 230 225 229 226 225 220 215 208 202 188 188 188 183 181 188 193 207 239 287 315 325 331 338 343 345 345 345 343 336 319 316 312 311 310 315 319
255 251 240 237 233 227 219 221 220 221 220 217 214 209 205 199 187 184 183 181 182 186 194 215 265 308 321 329 337 341 341 342 342 341 337 332 327 319 308 307 313 315 320
262 252 256 246 228 222 213 213 214 214 214 210 208 212 209 200 187 183 180 177 180 186 196 229 291 315 327 336 339 339 340 340 337 336 334 331 327 319 316 305 310 309 321
262 257 249 243 229 215 207 207 207 206 207 204 203 203 203 196 188 183 183 182 179 184 199 254 307 324 332 336 338 338 337 334 333 332 328 326 323 320 316 312 310 308 315
260 256 245 240 224 210 206 203 201 198 200 196 195 195 194 186 181 179 174 175 178 182 210 286 316 326 333 337 337 335 333 332 330 328 326 323 320 316 314 312 314 314 308
260 246 254 232 217 205 201 200 194 190 192 187 187 187 183 180 175 171 172 174 174 190 248 303 321 329 333 334 334 333 332 329 326 325 323 320 318 315 312 309 309 305 307
254 245 240 221 210 200 194 190 188 182 180 177 180 178 175 172 170 169 171 172 178 206 285 317 324 329 331 332 332 330 328 328 326 323 320 319 317 313 310 307 303 300 294
242 235 217 205 199 192 186 180 177 173 172 177 174 171 167 167 168 170 170 171 187 242 307 320 325 329 331 330 331 329 330 328 323 321 320 318 315 313 311 309 305 299 295
218 211 201 194 186 182 176 173 169 170 172 171 168 166 166 167 169 168 169 175 199 274 315 323 327 330 330 331 331 331 328 324 323 322 319 319 317 316 315 311 306 304 302
181 187 181 179 174 171 170 168 167 167 167 166 166 165 165 165 167 169 172 179 210 302 319 327 328 330 333 334 332 329 325 324 323 322 322 321 319 317 317 313 311 309 302
161 166 168 169 167 166 166 165 161 164 164 164 164 163 162 164 169 171 171 176 264 318 327 328 331 335 335 332 328 326 325 325 324 322 321 319 318 317 319 316 310 305 304
147 155 158 163 162 162 161 160 159 161 163 163 162 161 161 166 171 168 167 195 311 326 331 333 336 336 333 330 329 329 328 324 321 321 320 319 319 319 311 310 308 309 307
146 150 158 158 157 159 159 158 159 161 163 162 162 163 166 168 167 169 180 260 328 335 335 336 335 333 332 331 331 330 324 321 321 321 321 320 321 327 316 312 310 306 305
150 157 160 159 159 159 160 159 159 161 163 164 163 165 168 167 169 176 195 338 342 336 339 338 335 333 332 332 331 328 323 321 321 322 322 323 328 328 323 327 316 313 309
159 161 159 158 159 159 160 159 161 162 163 164 166 167 168 172 174 174 142 343 340 342 339 336 335 335 334 331 330 329 324 323 324 325 324 330 330 325 324 318 316 311 311
164 162 162 161 159 160 162 163 161 162 165 166 166 168 170 174 168 164 356 338 341 339 337 337 336 334 331 331 332 329 326 326 328 330 331 328 321 322 321 316 316 313 310
168 166 165 163 162 163 164 164 163 164 165 166 167 168 169 166 169 323 322 335 336 338 339 338 334 331 333 332 332 332 329 326 328 328 322 322 323 322 320 317 315 309 320
170 169 167 166 166 165 166 165 162 164 166 168 169 167 165 174 196 293 331 334 337 337 335 333 335 334 332 332 333 334 329 327 327 320 321 323 326 321 317 316 309 316 317
168 170 168 166 166 166 167 165 164 165 168 168 167 166 172 189 238 315 332 336 333 332 333 335 334 333 333 335 335 334 329 328 321 321 320 326 321 317 319 319 319 315 316
164 167 166 165 165 168 173 166 166 168 167 167 172 176 193 204 292 330 330 331 332 336 337 336 335 335 336 337 334 336 336 329 324 319 321 316 321 325 325 329 329 330 332
161 164 165 162 162 168 169 173 165 165 168 169 175 182 187 243 312 324 331 333 336 338 337 337 335 335 335 337 340 339 332 331 325 324 316 323 324 328 331 334 339 339 339
157 161 163 161 160 162 164 164 162 163 168 174 176 181 204 290 321 328 333 338 339 341 338 336 334 332 332 334 330 325 329 322 320 315 323 329 334 337 339 341 342 342 341
154 157 157 156 153 157 157 156 158 164 176 175 177 191 265 312 325 333 337 337 336 334 336 335 333 331 328 327 325 329 321 321 322 323 328 333 336 338 339 340 340 342 342
Height
1455 1456 1458 1461 1464 1467 1470 1471 1473 1474 1475 1477 1480 1485 1489 1493 1497 1500 1503 1507 1509 1511 1512 1512 1514 1514 1516 1516 1516 1514 1512 1510 1506 1503 1502 1498 1497 1495 1494 1494 1493 1492 1490
1445 1449 1451 1454 1456 1460 1463 1465 1467 1469 1471 1472 1474 1477 1483 1487 1491 1495 1499 1503 1505 1508 1511 1510 1512 1513 1514 1514 1512 1511 1509 1506 1502 1501 1497 1497 1496 1493 1492 1491 1489 1488 1486
1435 1438 1441 1445 1450 1452 1455 1457 1460 1463 1466 1468 1469 1473 1479 1484 1488 1492 1496 1499 1502 1505 1507 1510 1510 1511 1512 1511 1509 1507 1506 1503 1501 1500 1500 1496 1494 1490 1486 1486 1483 1482 1480
1423 1426 1430 1434 1440 1444 1447 1450 1453 1457 1461 1463 1466 1469 1472 1478 1484 1489 1493 1495 1499 1503 1505 1508 1508 1509 1508 1507 1506 1504 1502 1501 1500 1498 1496 1495 1494 1490 1481 1477 1476 1473 1470
1415 1416 1418 1423 1431 1436 1439 1443 1448 1452 1455 1459 1463 1466 1470 1476 1481 1486 1490 1494 1498 1502 1504 1506 1506 1506 1505 1504 1503 1501 1500 1498 1496 1495 1493 1492 1490 1487 1484 1473 1468 1466 1463
1408 1409 1412 1417 1422 1429 1433 1436 1441 1447 1451 1455 1459 1464 1469 1474 1479 1483 1488 1492 1496 1500 1502 1503 1503 1503 1503 1501 1500 1498 1497 1495 1493 1491 1490 1488 1487 1483 1480 1473 1466 1460 1454
1400 1402 1403 1408 1415 1421 1425 1429 1435 1441 1447 1452 1457 1463 1467 1472 1477 1481 1486 1491 1494 1498 1499 1500 1500 1500 1500 1498 1497 1496 1494 1493 1491 1489 1487 1485 1483 1479 1476 1471 1463 1454 1448
1394 1393 1396 1401 1407 1414 1420 1424 1430 1436 1443 1449 1455 1461 1467 1472 1477 1482 1486 1490 1494 1496 1497 1498 1497 1498 1497 1495 1494 1493 1491 1489 1487 1486 1483 1481 1478 1476 1472 1468 1462 1447 1443
1386 1390 1391 1394 1399 1405 1412 1420 1425 1431 1440 1446 1453 1460 1466 1471 1476 1482 1486 1490 1492 1494 1495 1495 1495 1495 1494 1493 1491 1490 1488 1486 1484 1482 1480 1477 1474 1471 1468 1464 1460 1455 1437
1376 1379 1383 1386 1393 1401 1406 1415 1423 1427 1437 1445 1453 1459 1465 1470 1476 1481 1485 1488 1490 1491 1493 1493 1493 1492 1491 1490 1488 1487 1485 1483 1481 1478 1475 1472 1469 1466 1463 1459 1455 1451 1444
1366 1371 1376 1380 1386 1396 1403 1411 1419 1426 1436 1445 1451 1457 1464 1470 1476 1481 1484 1486 1488 1489 1490 1491 1490 1489 1488 1486 1485 1484 1481 1479 1477 1473 1470 1468 1464 1460 1456 1452 1448 1443 1439
1355 1365 1370 1376 1382 1393 1402 1410 1417 1425 1436 1444 1451 1457 1464 1470 1476 1480 1482 1484 1486 1487 1488 1488 1488 1486 1485 1483 1482 1480 1477 1474 1471 1468 1465 1462 1457 1453 1449 1444 1439 1435 1431
1353 1363 1370 1376 1382 1392 1402 1411 1418 1425 1436 1444 1451 1458 1463 1469 1475 1478 1480 1482 1484 1485 1486 1486 1485 1483 1482 1480 1478 1475 1473 1469 1466 1463 1459 1455 1450 1446 1441 1437 1432 1427 1422
1357 1367 1371 1378 1384 1393 1403 1411 1418 1428 1437 1445 1452 1458 1464 1469 1474 1477 1478 1480 1482 1483 1484 1484 1482 1481 1479 1477 1474 1471 1468 1464 1461 1457 1453 1449 1444 1440 1435 1431 1427 1422 1416
1366 1370 1372 1379 1387 1396 1405 1414 1421 1430 1440 1447 1453 1459 1464 1469 1473 1475 1477 1479 1480 1481 1482 1481 1479 1477 1476 1473 1470 1466 1462 1459 1455 1452 1448 1443 1439 1434 1431 1426 1421 1416 1409
1372 1374 1378 1383 1391 1399 1408 1416 1424 1434 1443 1449 1454 1459 1464 1468 1472 1474 1475 1477 1479 1479 1479 1478 1476 1474 1472 1469 1466 1462 1458 1454 1450 1445 1440 1436 1431 1426 1423 1418 1414 1411 1403
1375 1377 1382 1388 1395 1402 1411 1419 1428 1437 1444 1449 1454 1460 1464 1468 1471 1472 1474 1476 1477 1477 1476 1475 1473 1470 1467 1464 1460 1457 1452 1448 1444 1439 1434 1429 1424 1419 1414 1409 1405 1400 1397
1376 1381 1387 1393 1400 1408 1416 1424 1432 1439 1445 1450 1455 1460 1464 1467 1469 1472 1474 1475 1475 1474 1473 1471 1469 1466 1462 1459 1455 1451 1446 1442 1438 1433 1428 1422 1417 1413 1408 1403 1398 1393 1387
1380 1385 1391 1398 1405 1412 1420 1426 1433 1440 1445 1451 1456 1460 1464 1467 1469 1471 1472 1473 1473 1472 1470 1467 1464 1462 1458 1454 1449 1445 1440 1435 1431 1427 1422 1417 1412 1408 1404 1398 1391 1385 1379
1384 1389 1397 1403 1410 1416 1423 1429 1434 1441 1447 1452 1456 1460 1464 1467 1469 1470 1471 1471 1470 1469 1467 1463 1460 1457 1453 1449 1445 1440 1435 1430 1426 1422 1417 1412 1408 1402 1398 1392 1385 1378 1372
1388 1395 1401 1406 1412 1418 1425 1431 1437 1443 1448 1453 1457 1461 1464 1466 1467 1469 1469 1468 1467 1465 1463 1461 1457 1453 1448 1444 1440 1435 1431 1427 1422 1417 1411 1406 1401 1397 1392 1386 1379 1373 1368
1391 1398 1403 1410 1416 1422 1428 1433 1439 1444 1449 1454 1458 1461 1464 1465 1467 1467 1467 1466 1464 1462 1459 1456 1453 1449 1444 1439 1434 1430 1427 1423 1418 1412 1406 1400 1396 1389 1383 1377 1372 1368 1361
1392 1400 1405 1411 1419 1425 1431 1435 1440 1445 1450 1454 1458 1461 1463 1465 1465 1465 1465 1463 1461 1458 1454 1451 1447 1443 1439 1434 1430 1425 1421 1418 1413 1408 1401 1395 1389 1382 1376 1371 1366 1361 1354
1395 1401 1407 1414 1420 1427 1433 1439 1442 1447 1452 1456 1459 1461 1463 1464 1464 1464 1462 1460 1457 1453 1450 1446 1442 1438 1434 1429 1424 1419 1416 1412 1407 1402 1395 1389 1384 1378 1372 1366 1361 1356 1350
1399 1405 1410 1416 1422 1430 1436 1442 1446 1450 1453 1456 1459 1461 1462 1463 1462 1461 1459 1456 1453 1450 1446 1443 1439 1433 1429 1425 1422 1418 1413 1409 1403 1396 1389 1383 1378 1372 1367 1362 1357 1352 1346
1402 1408 1414 1420 1426 1433 1439 1444 1448 1452 1455 1457 1459 1460 1461 1461 1460 1458 1456 1454 1451 1448 1444 1440 1436 1431 1427 1422 1418 1414 1410 1404 1397 1390 1384 1379 1374 1368 1363 1357 1352 1347 1341